Tracking 19854 objects as of 23-Sep-2019
HD Live streaming from Space Station
objects crossing your sky now

STARLINK OBJ P

Track STARLINK OBJ P now!
10-day predictions
STARLINK OBJ P is classified as:


NORAD ID: 44248
Int'l Code: 2019-029P
Perigee: 556.6 km
Apogee: 557.5 km
Inclination: 53.0 °
Period: 95.6 minutes
Semi major axis: 6928 km
RCS: Unknown
Launch date: May 24, 2019
Source: United States (US)
Launch site: AIR FORCE EASTERN TEST RANGE (AFETR)
aabbcc
Your satellite tracking list
Your tracking list is empty




NASA's NSSDC Master Catalog

Two Line Element Set (TLE):
1 44248U 19029P   19265.71325426  .00002401  00000-0  18413-3 0  9993
2 44248  52.9992 345.5416 0000707 171.2656 188.8344 15.05520399 18420
Source of the keplerian elements: AFSPC